カタログに戻る

SCOUT B DEB

運用中PO
NORAD 2800·DEBRIS·🇺🇸 United States

打ち上げ Aug 4, 1966 から Vandenberg Space Force Base

Loading…

次のパス (今後24時間)

TLE

最新Source: Space-Track

元期: Sep 14, 2026, 04:34 UTC

1 02800U 66070D   26257.19073197  .00002841  00000-0  36441-3 0  9994
2 02800  81.4069 178.7991 1380285 213.4845 137.1112 12.44423814595846

AllMySatでSCOUT B DEBをリアルタイム追跡

Download on the App Store